Location: Peach Mountain Observatory
(42.3967°N, 83.9367°W)
Time: 02:30:53
(UTC-04:00)

deb Explorer IX - Pass Details

Date: 20 January 2020
Orbit: 548 x 1100 km, 38.8° (Epoch: 07 April)

Event Time Altitude Azimuth Distance (km) Brightness Sun altitude
Rises 06:31:52 0° 273° (W) 3,649 - -16.1°
Reaches altitude 10° 06:35:53 10° 251° (WSW) 2,578 - -15.4°
Exits shadow 06:36:59 12° 242° (WSW) 2,372 ? -15.2°
Maximum altitude 06:39:03 15° 220° (SW) 2,164 ? -14.8°
Drops below altitude 10° 06:42:00 10° 188° (S) 2,364 ? -14.3°
Sets 06:45:26 0° 164° (SSE) 3,162 ? -13.7°
